Flag for Germany Weather past 2 weeks in Potsdam, Brandenburg, Germany

Now
62 °F

Light rain. Overcast.


Feels Like: 62 °F
Forecast: 63 / 74 °F
Wind: 5 mph from Northeast

Location: Potsdam

Current Time: Jul 24, 2014 at 9:22:05 PM

Latest Report: Jul 24, 2014 at 9:00 PM


Visibility: 9 mi

Pressure: 30.02 "Hg

Humidity: 96%

Dew point: 61 °F

Location of PotsdamLocation

Historic Weather in Potsdam — Graph

°F

Potsdam temperature yesterday

Maximum temperature yesterday: 85 °F (at 4:00 PM)
Minimum temperature yesterday: 64 °F (at 11:00 PM)
Average temperature yesterday: 74 °F

Past Weeks' High & Low Weather Summary

 TemperatureHumidityPressure
High93 °F (Jul 20, 4:00 PM)98% (Jul 9, 11:00 PM)30.19 "Hg (Jul 9, 11:00 PM)
Low54 °F (Jul 13, 5:00 AM)24% (Jul 20, 4:00 PM)29.69 "Hg (Jul 10, 2:00 AM)
Average71 °F69%29.94 "Hg
* Reported Jul 9 8:00 PM — Jul 24 8:00 PM, Potsdam, Weather by CustomWeather, © 2014

Note: Actual official high and low records may vary slightly from our data, if they occured in-between our weather recording intervals... More about our weather records

Advertising

Potsdam weather history for previous 24 hours

 ConditionsComfort  
Time TempWeatherWind HumidityBarometerVisibility
8:00 PM
Jul 24
63 °FLight rain. Overcast.6 mph92%30.01 "Hg9 mi
7:00 PM67 °FLight rain. Overcast.5 mph72%30.01 "Hg16 mi
6:00 PM69 °FLight rain. Overcast.7 mph66%30.01 "Hg28 mi
5:00 PM71 °FOvercast.6 mph62%30.01 "Hg25 mi
4:00 PM70 °FLight rain. Overcast.8 mph68%30.04 "Hg19 mi
3:00 PM72 °FOvercast.6 mph64%30.03 "Hg25 mi
2:00 PM72 °FOvercast.5 mph66%30.03 "Hg25 mi
1:00 PM73 °FOvercast.5 mph63%30.03 "Hg22 mi
12:00 PM71 °FOvercast.5 mph78%30.02 "Hg25 mi
11:00 AM66 °FOvercast.2 mph86%30.03 "Hg22 mi
10:00 AM64 °FLight rain. Overcast.1 mph87%30.04 "Hg19 mi
9:00 AM64 °FLight rain. Overcast.5 mph82%30.04 "Hg19 mi
8:00 AM64 °FPartly sunny.3 mph76%30.04 "Hg25 mi
7:00 AM61 °FPartly sunny.5 mph80%30.03 "Hg22 mi
6:00 AM61 °FPartly sunny.5 mph77%30.03 "Hg22 mi
5:00 AM61 °FPassing clouds.5 mph75%30.03 "Hg25 mi
4:00 AM63 °FPassing clouds.3 mph74%30.03 "Hg28 mi
3:00 AM65 °FPassing clouds.5 mph72%30.03 "Hg28 mi
2:00 AM64 °FPassing clouds.3 mph73%30.03 "Hg28 mi
1:00 AM64 °FPassing clouds.3 mph75%30.04 "Hg28 mi
12:00 AM64 °FPassing clouds.3 mph78%30.04 "Hg28 mi
11:00 PM
Jul 23
64 °FPassing clouds.1 mph75%30.04 "Hg25 mi
10:00 PM70 °FPassing clouds.5 mph61%30.05 "Hg25 mi
9:00 PM75 °FScattered clouds.5 mph44%30.02 "Hg25 mi
Weather by CustomWeather, © 2014

See weather overviewHow to use our weather pages